Regional Weather Roundup
Issued by NWS

Home | Current Version | Previous Version | Graphics & Text | Print | Product List | Glossary On
Versions: 1 2 3 4 5 6 7 8 9 10 11 12 13 14 15 16 17 18 19 20 21 22 23 24 25 26 27 28 29 30 31 32 33 34 35 36 37 38 39 40 41 42 43 44 45 46 47 48 49 50
000
ASUS43 KLSX 280259
RWRMO

WEATHER SUMMARY FOR MISSOURI
NATIONAL WEATHER SERVICE SPRINGFIELD MO
1000 PM CDT SUN JUL 27 2014

NOTE: "FAIR" INDICATES FEW OR NO CLOUDS BELOW 12,000 FEET WITH NO
       SIGNIFICANT WEATHER AND/OR OBSTRUCTIONS TO VISIBILITY.
       CURRENT SKY AND/OR WEATHER CONDITIONS ARE NOT AVAILABLE FOR
       CHILLICOTHE AND FARMINGTON.

MOZ001>031-035>038-043-044-053-054-280400-
...NORTHERN AND WESTERN MISSOURI...

CITY           SKY/WX    TMP DP  RH WIND       PRES   REMARKS
KANSAS CTY INT CLEAR     70  59  68 N9        30.11R
KANSAS C DTWN  CLEAR     76  59  55 N8        30.09R
LEE`S SUMMIT   CLEAR     73  58  59 N8        30.10R
ST JOSEPH      CLEAR     68  60  75 N8        30.12R
CHILLICOTHE      N/A     72  57  59 N3        30.10R
KIRKSVILLE     CLEAR     68  57  68 NW8       30.07R

$$
MOZ066>068-077>081-088>096-101>105-280400-
...SOUTHWEST MISSOURI...

CITY           SKY/WX    TMP DP  RH WIND       PRES   REMARKS
SPRINGFIELD    CLEAR     72  58  61 N8        30.05R
JOPLIN         CLEAR     75  61  61 NW3       30.07R

$$
MOZ032>034-039>042-045>050-055>058-069>072-280400-
...CENTRAL MISSOURI...

CITY           SKY/WX    TMP DP  RH WIND       PRES   REMARKS
COLUMBIA       CLEAR     73  59  61 N10       30.05R
JEFFERSON CITY CLEAR     77  57  50 NW9       30.02R
ROLLA          CLEAR     75  56  51 NW8       30.01S
SEDALIA        CLEAR     71  60  68 NW8       30.07R
OSAGE BEACH      N/A     77  55  47 N5        30.04R

$$
MOZ051-052-059>065-280400-
...EAST CENTRAL MISSOURI...

CITY           SKY/WX    TMP DP  RH WIND       PRES   REMARKS
ST LOUIS INTL  PTCLDY    76  59  55 NW9       29.99R
SPIRIT OF STL  CLEAR     76  59  55 NW9       29.99R
ST CHARLES     CLEAR     74  59  59 NW9       29.98R

$$
MOZ072>076-082>087-097>100-106>115-280400-
...SOUTH CENTRAL AND SOUTHEAST MISSOURI...

CITY           SKY/WX    TMP DP  RH WIND       PRES   REMARKS
CAPE GIRARDEAU CLEAR     75  63  66 N8        29.92R
FARMINGTON     CLEAR     77  55  47 NW6       29.99S
POPLAR BLUFF   CLEAR     77  63  61 NW7       29.93R
WEST PLAINS    CLEAR     78  58  49 NW8       30.04R

$$



USA.gov is the U.S. government's official web portal to all federal, state and local government web resources and services.